Weather Roundup
Issued by NWS

Home | Current Version | Previous Version | Text Only | Print | Product List | Glossary On
Versions: 1 2 3 4 5 6 7 8 9 10 11 12 13 14 15 16 17 18 19 20 21 22 23 24 25 26 27 28 29 30 31 32 33 34 35 36 37 38 39 40 41 42 43 44 45 46 47 48 49 50
000
NZUS93 KARX 280710
HRRWXR

CURRENT HOURLY OBSERVATIONS ACROSS
MUCH OF THE UPPER MISSISSIPPI VALLEY
NATIONAL WEATHER SERVICE LA CROSSE WI
200 AM CDT TUE JUL 28 2015


...SOUTHEAST MINNESOTA...


CITY           SKY/WX    TMP DP  RH WIND       PRES   REMARKS
ROCHESTER      CLEAR     71  69  93 SE10      29.93F FOG
ROCHESTER/MAYO FAIR      72  72 100 SE7       29.92F
WINONA         CLEAR     73  72  94 S3        29.93F
AUSTIN         CLEAR     73  72  94 SE7       29.91F
ALBERT LEA     MOCLDY    73  72  94 S13       29.91R
DODGE CENTER   PTCLDY    70  70 100 SE7       29.92F FOG
PRESTON        CLEAR     71  68  91 SE7       29.94F
OWATONNA       CLEAR     73  70  88 SE13      29.89F
FARIBAULT      CLEAR     73  72  94 SE9       29.88F
$$

...ELSEWHERE IN MINNESOTA...


CITY           SKY/WX    TMP DP  RH WIND       PRES   REMARKS
MINNEAPOLIS    PTCLDY    75  71  87 SE9       29.87F
INTNL FALLS    PTCLDY    70  65  84 SE6       29.85F
DULUTH         PTCLDY    74  64  71 S9        29.92F
RED WING       CLEAR     75  70  83 SE7       29.89F
REDWOOD FALLS  MOCLDY    72  66  81 SE13      29.79F
MANKATO        CLEAR     73  70  88 S14G22    29.85F
WORTHINGTON    MOCLDY    72  64  78 S15       29.81F
FAIRMONT       MOCLDY    72  63  73 SE15      29.85F
$$

...SOUTHWEST WISCONSIN...


CITY           SKY/WX    TMP DP  RH WIND       PRES   REMARKS
LA CROSSE      PTCLDY    72  69  90 SE8       29.95S
PRAIRIE DU CHI CLEAR     70  68  93 E3        29.96F
BOSCOBEL       CLEAR     70  67  90 NE3       29.98S
LONE ROCK      CLEAR     69  64  84 E6        30.00S
PLATTEVILLE    CLEAR     70  66  88 E7        29.99S
FORT MC COY    PTCLDY    68  64  87 CALM      29.99R
CAMP DOUGLAS   CLEAR     65  65 100 S3        29.99S
VIROQUA        FAIR      69  69 100 SE6       30.00S
WIS DELLS      CLEAR     71  61  70 SE7       30.00F
$$

...ELSEWHERE IN WISCONSIN...


CITY           SKY/WX    TMP DP  RH WIND       PRES   REMARKS
MILWAUKEE      PTCLDY    70  64  81 NW3       30.03R
MADISON        CLEAR     70  62  76 MISG      30.00F
GREEN BAY      CLEAR     64  62  93 S3        30.02F FOG
EAU CLAIRE     CLEAR     72  66  81 SE3       29.93F
BLACK RVR FLS  FAIR      66  66 100 CALM      29.97S
MEDFORD        CLEAR     67  62  85 SE6       30.01F
WAUSAU         CLEAR     67  63  87 E5        30.02S
WIS RAPIDS     CLEAR     69  61  75 SE3       30.02F
MARSHFIELD     CLEAR     69  60  73 SE5       30.01F
RICE LAKE      CLEAR     71  66  82 SE10      29.95F
$$

...NORTHEAST IOWA...


CITY           SKY/WX    TMP DP  RH WIND       PRES   REMARKS
DECORAH        CLEAR     70  70 100 SE6       29.95F FOG
MASON CITY     CLEAR     71  71 100 SE10      29.92F
CHARLES CITY   CLEAR     72  72 100 SE7       29.94F
OELWEIN        CLEAR     72  72 100 SE7       29.96F
$$

...ELSEWHERE IN IOWA...


CITY           SKY/WX    TMP DP  RH WIND       PRES   REMARKS
DES MOINES     PTCLDY    74  69  85 SE7       29.88F
IOWA CITY      CLEAR     72  70  93 SE5       29.95F
FORT DODGE     PTCLDY    70  66  88 SE8       29.89F
$$

...NORTHERN ILLINOIS...


CITY           SKY/WX    TMP DP  RH WIND       PRES   REMARKS
CHICAGO-OHARE  PTCLDY    73  66  78 NE5       30.00R
CHICAGO-MIDWAY CLOUDY    76  66  71 E6        29.99R
MOLINE         CLEAR     72  69  90 SE6       29.95S
ROCKFORD       PTCLDY    71  63  75 E7        30.01F
PEORIA         PTCLDY    77  71  82 E5        29.97R
$$

NOTE: "FAIR" INDICATES FEW OR NO CLOUDS BELOW 12,000 FEET WITH NO
SIGNIFICANT WEATHER AND/OR OBSTRUCTIONS TO VISIBILITY. WIND
SPEEDS ARE IN MILES-PER-HOUR.



USA.gov is the U.S. government's official web portal to all federal, state and local government web resources and services.